Moore, Oklahoma, United States
Lat: 35.34N, Lon: 97.49W
Wx Zone: OKZ029
Local Info
Past Weather Observations for Tuesday, October 21, 2014

NOTE: This archive is for the closest National Weather Service station to Moore. Information may differ from the station used for current weather conditions.

Click here for Long-term Archive

Time Weather Temperature Dewpoint Humidity Pressure Winds Precip Visibility
23:52
Clear
61°F / 16°C 55°F / 13°C 83% 30.06 in
(1018 mb)
SE 5.8 mph
(SE 9 kph)
- 10SM
22:52
Clear
61°F / 16°C 55°F / 13°C 83% 30.06 in
(1018 mb)
SSE 6.9 mph
(SSE 11 kph)
- 10SM
21:52
Clear
63°F / 17°C 57°F / 14°C 83% 30.06 in
(1018 mb)
SSE 5.8 mph
(SSE 9 kph)
- 10SM
20:52
Clear
64°F / 18°C 57°F / 14°C 78% 30.06 in
(1018 mb)
SSE 4.6 mph
(SSE 7 kph)
- 10SM
19:52
Clear
66°F / 19°C 57°F / 14°C 73% 30.06 in
(1018 mb)
SSE 4.6 mph
(SSE 7 kph)
- 10SM
18:52
Clear
68°F / 20°C 57°F / 14°C 69% 30.04 in
(1017 mb)
SSE 8.1 mph
(SSE 13 kph)
- 10SM
17:52
Partly Cloudy
72°F / 22°C 57°F / 14°C 61% 30.04 in
(1017 mb)
SSE 8.1 mph
(SSE 13 kph)
- 10SM
16:52
Partly Cloudy
79°F / 26°C 57°F / 14°C 48% 30.04 in
(1017 mb)
S 5.8 mph
(S 9 kph)
- 10SM
15:52
Partly Cloudy
81°F / 27°C 55°F / 13°C 42% 30.04 in
(1017 mb)
SE 13.8 mph
(SE 22 kph)
- 10SM
14:52
Partly Cloudy
82°F / 28°C 55°F / 13°C 40% 30.04 in
(1017 mb)
SE 12.7 mph
(SE 20 kph)
- 10SM
13:52
Partly Cloudy
82°F / 28°C 57°F / 14°C 42% 30.04 in
(1017 mb)
SSE 11.5 mph
(SSE 19 kph)
- 10SM
12:52
Partly Cloudy
82°F / 28°C 57°F / 14°C 42% 30.06 in
(1018 mb)
S 8.1 mph
(S 13 kph)
- 10SM
11:52
Partly Cloudy
82°F / 28°C 57°F / 14°C 42% 30.09 in
(1019 mb)
SSE 9.2 mph
(SSE 15 kph)
- 10SM
10:52
Partly Cloudy
81°F / 27°C 57°F / 14°C 45% 30.09 in
(1019 mb)
SSE 8.1 mph
(SSE 13 kph)
- 10SM
09:52
Partly Cloudy
75°F / 24°C 59°F / 15°C 57% 30.12 in
(1020 mb)
SW 8.1 mph
(SW 13 kph)
- 10SM
08:52
Partly Cloudy
66°F / 19°C 61°F / 16°C 83% 30.09 in
(1019 mb)
S 5.8 mph
(S 9 kph)
- 10SM
07:52
Partly Cloudy
63°F / 17°C 59°F / 15°C 88% 30.09 in
(1019 mb)
S 4.6 mph
(S 7 kph)
- 10SM
06:52
Partly Cloudy
61°F / 16°C 57°F / 14°C 88% 30.09 in
(1019 mb)
S 5.8 mph
(S 9 kph)
- 10SM
05:52
Partly Cloudy
61°F / 16°C 55°F / 13°C 83% 30.06 in
(1018 mb)
S 4.6 mph
(S 7 kph)
- 8SM
04:52
Partly Cloudy
61°F / 16°C 57°F / 14°C 88% 30.06 in
(1018 mb)
SSE 4.6 mph
(SSE 7 kph)
- 7SM
03:52
Clear
Fog And Mist
61°F / 16°C 57°F / 14°C 88% 30.06 in
(1018 mb)
SE 3.5 mph
(SE 6 kph)
- 6SM
02:52
Clear
Fog And Mist
61°F / 16°C 57°F / 14°C 88% 30.06 in
(1018 mb)
SSE 4.6 mph
(SSE 7 kph)
- 5SM
01:52
Clear
61°F / 16°C 57°F / 14°C 88% 30.06 in
(1018 mb)
S 4.6 mph
(S 7 kph)
- 7SM
00:52
Partly Cloudy
63°F / 17°C 59°F / 15°C 88% 30.06 in
(1018 mb)
S 4.6 mph
(S 7 kph)
- 10SM
Time Weather Temperature Dewpoint Humidity Pressure Winds Precip Visibility


Weather for websites

WeatherForYou.com, LLC is not responsible for any damages or problems caused by this service. Current weather conditions are obtained from the closest station including government and personal stations which may have varying degrees of accuracy. Weather forecasts are derived from the NOAA NDFD. Like all things, this site belongs to Jesus Christ... He just trusts me to maintain it. If you have any questions or comments email webmaster@weatherforyou.com

Copyright © 2014, WeatherForYou.com LLC. All rights reserved.